Voltar ao catálogo

COSMOS 1867 COOLANT

AtivoLEO
NORAD 39675·DEBRIS·🇷🇺 Russia

Lançado Jul 10, 1987 de Baikonur Cosmodrome

Loading…

Próximas Passagens (próximas 24 horas)

TLE

AtualizadoSource: Space-Track

Época: Sep 14, 2026, 08:09 UTC

1 39675U 87060AN  26257.33964982  .00000189  00000-0  10225-3 0  9998
2 39675  65.0059 116.1744 0018435 279.0727  80.8273 14.34575983649507

Acompanhe COSMOS 1867 COOLANT em tempo real com AllMySat

Download on the App Store